Time,TemperatureF,DewpointF,PressureIn,WindDirection,WindDirectionDegrees,WindSpeedMPH,WindSpeedGustMPH,Humidity,HourlyPrecipIn,Conditions,Clouds,dailyrainin,SoftwareType,DateUTC
2013-04-06 00:02:00,33.0,32.0,-100.00,ESE,105,13.0,21.0,93,0.00,,,0.00,,2013-04-06 05:02:00,
2013-04-06 00:12:00,34.0,32.0,-100.00,ESE,105,14.0,22.0,93,0.00,,,0.00,,2013-04-06 05:12:00,
2013-04-06 00:22:00,34.0,32.0,-100.00,ESE,115,15.0,21.0,93,0.00,,,0.00,,2013-04-06 05:22:00,
2013-04-06 00:32:00,34.0,32.0,-100.00,ESE,115,16.0,21.0,93,0.00,,,0.00,,2013-04-06 05:32:00,
2013-04-06 00:42:00,34.0,32.0,-100.00,ESE,110,16.0,23.0,92,0.00,,,0.00,,2013-04-06 05:42:00,
2013-04-06 00:51:00,34.0,32.0,-100.00,ESE,110,14.0,21.0,92,0.00,,,0.00,,2013-04-06 05:51:00,
2013-04-06 01:02:00,34.0,32.0,-100.00,ESE,110,14.0,20.0,92,0.00,,,0.00,,2013-04-06 06:02:00,
2013-04-06 01:12:00,34.0,32.0,-100.00,ESE,110,16.0,22.0,93,0.00,,,0.00,,2013-04-06 06:12:00,
2013-04-06 01:22:00,34.0,32.0,-100.00,ESE,120,15.0,19.0,93,0.00,,,0.00,,2013-04-06 06:22:00,
2013-04-06 01:32:00,34.0,32.0,-100.00,ESE,115,14.0,20.0,92,0.00,,,0.00,,2013-04-06 06:32:00,
2013-04-06 01:42:00,34.0,32.0,-100.00,ESE,110,16.0,24.0,92,0.00,,,0.00,,2013-04-06 06:42:00,
2013-04-06 01:52:00,34.0,32.0,-100.00,ESE,115,17.0,22.0,92,0.00,,,0.00,,2013-04-06 06:52:00,
2013-04-06 02:03:00,34.0,32.0,-100.00,ESE,120,15.0,23.0,91,0.00,,,0.00,,2013-04-06 07:03:00,
2013-04-06 02:12:00,34.0,32.0,-100.00,SE,125,14.0,21.0,91,0.00,,,0.00,,2013-04-06 07:12:00,
2013-04-06 02:22:00,34.0,32.0,-100.00,ESE,120,12.0,21.0,91,0.00,,,0.00,,2013-04-06 07:22:00,
2013-04-06 02:33:00,34.0,32.0,-100.00,SE,125,14.0,19.0,91,0.00,,,0.00,,2013-04-06 07:33:00,
2013-04-06 02:43:00,34.0,32.0,-100.00,ESE,115,17.0,21.0,91,0.00,,,0.00,,2013-04-06 07:43:00,
2013-04-06 02:52:00,34.0,32.0,-100.00,ESE,110,12.0,19.0,91,0.00,,,0.00,,2013-04-06 07:52:00,
2013-04-06 03:02:00,34.0,32.0,-100.00,ESE,110,14.0,20.0,91,0.00,,,0.00,,2013-04-06 08:02:00,
2013-04-06 03:12:00,34.0,32.0,-100.00,ESE,120,12.0,18.0,91,0.00,,,0.00,,2013-04-06 08:12:00,
2013-04-06 03:22:00,35.0,32.0,-100.00,East,95,12.0,16.0,91,0.00,,,0.00,,2013-04-06 08:22:00,
2013-04-06 03:32:00,34.0,32.0,-100.00,East,100,11.0,16.0,91,0.00,,,0.00,,2013-04-06 08:32:00,
2013-04-06 03:42:00,35.0,32.0,-100.00,ESE,110,10.0,13.0,92,0.00,,,0.00,,2013-04-06 08:42:00,
2013-04-06 03:52:00,34.0,32.0,-100.00,East,100,9.0,13.0,92,0.00,,,0.00,,2013-04-06 08:52:00,
2013-04-06 04:02:00,35.0,32.0,-100.00,ESE,110,10.0,14.0,92,0.00,,,0.00,,2013-04-06 09:02:00,
2013-04-06 04:12:00,35.0,32.0,-100.00,ESE,105,12.0,17.0,92,0.00,,,0.00,,2013-04-06 09:12:00,
2013-04-06 04:22:00,35.0,32.0,-100.00,ESE,105,11.0,15.0,91,0.00,,,0.00,,2013-04-06 09:22:00,
2013-04-06 04:32:00,35.0,32.0,-100.00,ESE,115,10.0,16.0,88,0.00,,,0.00,,2013-04-06 09:32:00,
2013-04-06 04:43:00,36.0,32.0,-100.00,SE,125,12.0,18.0,86,0.00,,,0.00,,2013-04-06 09:43:00,
2013-04-06 04:52:00,36.0,32.0,-100.00,ESE,120,9.0,17.0,85,0.00,,,0.00,,2013-04-06 09:52:00,
2013-04-06 05:03:00,36.0,32.0,-100.00,ESE,115,10.0,16.0,84,0.00,,,0.00,,2013-04-06 10:03:00,
2013-04-06 05:13:00,36.0,32.0,-100.00,ESE,105,11.0,17.0,83,0.00,,,0.00,,2013-04-06 10:13:00,
2013-04-06 05:22:00,36.0,32.0,-100.00,ESE,110,11.0,14.0,83,0.00,,,0.00,,2013-04-06 10:22:00,
2013-04-06 05:33:00,36.0,32.0,-100.00,ESE,110,11.0,16.0,83,0.00,,,0.00,,2013-04-06 10:33:00,
2013-04-06 05:42:00,36.0,32.0,-100.00,ESE,105,9.0,16.0,83,0.00,,,0.00,,2013-04-06 10:42:00,
2013-04-06 05:52:00,36.0,32.0,-100.00,ESE,115,11.0,16.0,84,0.00,,,0.00,,2013-04-06 10:52:00,
2013-04-06 06:02:00,36.0,32.0,-100.00,ESE,105,9.0,12.0,84,0.00,,,0.00,,2013-04-06 11:02:00,
2013-04-06 06:12:00,36.0,32.0,-100.00,ESE,115,11.0,15.0,84,0.00,,,0.00,,2013-04-06 11:12:00,
2013-04-06 06:22:00,36.0,32.0,-100.00,ESE,110,9.0,14.0,85,0.00,,,0.00,,2013-04-06 11:22:00,
2013-04-06 06:32:00,36.0,32.0,-100.00,East,100,10.0,12.0,85,0.00,,,0.00,,2013-04-06 11:32:00,
2013-04-06 06:42:00,36.0,32.0,-100.00,ESE,110,7.0,12.0,85,0.00,,,0.00,,2013-04-06 11:42:00,
2013-04-06 06:52:00,36.0,32.0,-100.00,East,100,9.0,12.0,85,0.00,,,0.00,,2013-04-06 11:52:00,
2013-04-06 07:02:00,36.0,32.0,-100.00,ESE,105,7.0,12.0,85,0.00,,,0.00,,2013-04-06 12:02:00,
2013-04-06 07:12:00,36.0,32.0,-100.00,ESE,110,7.0,11.0,85,0.00,,,0.00,,2013-04-06 12:12:00,
2013-04-06 07:22:00,36.0,32.0,-100.00,ESE,105,8.0,11.0,85,0.00,,,0.00,,2013-04-06 12:22:00,
2013-04-06 07:32:00,36.0,32.0,-100.00,East,100,7.0,13.0,85,0.00,,,0.00,,2013-04-06 12:32:00,
2013-04-06 07:43:00,36.0,32.0,-100.00,East,100,10.0,12.0,85,0.00,,,0.00,,2013-04-06 12:43:00,
2013-04-06 07:52:00,36.0,32.0,-100.00,East,95,9.0,13.0,85,0.00,,,0.00,,2013-04-06 12:52:00,
2013-04-06 08:02:00,36.0,32.0,-100.00,East,100,9.0,13.0,85,0.00,,,0.00,,2013-04-06 13:02:00,
2013-04-06 08:12:00,36.0,32.0,-100.00,ESE,105,8.0,12.0,85,0.00,,,0.00,,2013-04-06 13:12:00,
2013-04-06 08:23:00,37.0,32.0,-100.00,East,100,8.0,13.0,85,0.00,,,0.00,,2013-04-06 13:23:00,
2013-04-06 08:32:00,37.0,34.0,-100.00,ESE,110,12.0,14.0,85,0.00,,,0.00,,2013-04-06 13:32:00,
2013-04-06 08:42:00,38.0,34.0,-100.00,East,100,7.0,12.0,84,0.00,,,0.00,,2013-04-06 13:42:00,
2013-04-06 08:52:00,38.0,34.0,-100.00,East,100,9.0,12.0,83,0.00,,,0.00,,2013-04-06 13:52:00,
2013-04-06 09:12:00,40.0,34.0,-100.00,ESE,115,8.0,12.0,81,0.00,,,0.00,,2013-04-06 14:12:00,
2013-04-06 09:22:00,40.0,34.0,-100.00,East,100,9.0,13.0,79,0.00,,,0.00,,2013-04-06 14:22:00,
2013-04-06 09:32:00,40.0,34.0,-100.00,East,80,7.0,10.0,78,0.00,,,0.00,,2013-04-06 14:32:00,
2013-04-06 09:42:00,40.0,34.0,-100.00,East,90,8.0,11.0,78,0.00,,,0.00,,2013-04-06 14:42:00,
2013-04-06 09:52:00,40.0,34.0,-100.00,ENE,70,6.0,11.0,78,0.00,,,0.00,,2013-04-06 14:52:00,
2013-04-06 10:02:00,41.0,36.0,-100.00,ENE,75,4.0,9.0,78,0.00,,,0.00,,2013-04-06 15:02:00,
2013-04-06 10:12:00,41.0,34.0,-100.00,ENE,70,7.0,9.0,77,0.00,,,0.00,,2013-04-06 15:12:00,
2013-04-06 10:22:00,41.0,34.0,-100.00,ENE,70,9.0,11.0,77,0.00,,,0.00,,2013-04-06 15:22:00,
2013-04-06 10:33:00,42.0,36.0,-100.00,NE,35,7.0,9.0,76,0.00,,,0.00,,2013-04-06 15:33:00,
2013-04-06 10:43:00,41.0,34.0,-100.00,NE,45,9.0,11.0,75,0.00,,,0.00,,2013-04-06 15:43:00,
2013-04-06 10:52:00,41.0,34.0,-100.00,NE,50,6.0,10.0,75,0.00,,,0.00,,2013-04-06 15:52:00,
2013-04-06 11:04:00,42.0,34.0,-100.00,ENE,70,7.0,11.0,74,0.00,,,0.00,,2013-04-06 16:04:00,
2013-04-06 11:17:00,42.0,34.0,-100.00,ENE,70,8.0,11.0,73,0.00,,,0.00,,2013-04-06 16:17:00,
2013-04-06 11:23:00,42.0,34.0,-100.00,East,85,7.0,9.0,73,0.00,,,0.00,,2013-04-06 16:23:00,
2013-04-06 11:32:00,42.0,34.0,-100.00,ENE,70,7.0,11.0,72,0.00,,,0.00,,2013-04-06 16:32:00,
2013-04-06 11:42:00,43.0,34.0,-100.00,NE,50,7.0,11.0,72,0.00,,,0.00,,2013-04-06 16:42:00,
2013-04-06 11:52:00,43.0,34.0,-100.00,NNE,15,6.0,9.0,71,0.00,,,0.00,,2013-04-06 16:52:00,
2013-04-06 12:02:00,42.0,34.0,-100.00,NNE,30,7.0,9.0,71,0.00,,,0.00,,2013-04-06 17:02:00,
2013-04-06 12:12:00,42.0,34.0,-100.00,NNE,25,6.0,11.0,72,0.00,,,0.00,,2013-04-06 17:12:00,
2013-04-06 12:22:00,42.0,34.0,-100.00,NNE,20,7.0,9.0,72,0.00,,,0.00,,2013-04-06 17:22:00,
2013-04-06 12:32:00,41.0,34.0,-100.00,NE,35,7.0,9.0,72,0.00,,,0.00,,2013-04-06 17:32:00,
2013-04-06 12:42:00,41.0,34.0,-100.00,NE,50,7.0,9.0,72,0.00,,,0.00,,2013-04-06 17:42:00,
2013-04-06 12:52:00,41.0,34.0,-100.00,NE,55,5.0,8.0,73,0.00,,,0.00,,2013-04-06 17:52:00,
2013-04-06 13:02:00,41.0,34.0,-100.00,NNE,25,6.0,7.0,75,0.00,,,0.00,,2013-04-06 18:02:00,
2013-04-06 13:12:00,40.0,34.0,-100.00,NNE,20,6.0,8.0,76,0.00,,,0.00,,2013-04-06 18:12:00,
2013-04-06 13:23:00,40.0,34.0,-100.00,North,10,7.0,9.0,78,0.00,,,0.00,,2013-04-06 18:23:00,
2013-04-06 13:32:00,40.0,34.0,-100.00,NNE,30,6.0,9.0,79,0.00,,,0.00,,2013-04-06 18:32:00,
2013-04-06 13:42:00,40.0,34.0,-100.00,North,0,6.0,8.0,80,0.00,,,0.00,,2013-04-06 18:42:00,
2013-04-06 13:52:00,39.0,34.0,-100.00,North,355,7.0,9.0,82,0.00,,,0.00,,2013-04-06 18:52:00,
2013-04-06 14:02:00,39.0,34.0,-100.00,North,355,6.0,9.0,83,0.00,,,0.00,,2013-04-06 19:02:00,
2013-04-06 14:12:00,39.0,34.0,-100.00,North,0,9.0,11.0,85,0.00,,,0.00,,2013-04-06 19:12:00,
2013-04-06 14:22:00,39.0,36.0,-100.00,North,5,9.0,15.0,85,0.00,,,0.00,,2013-04-06 19:22:00,
2013-04-06 14:32:00,38.0,36.0,-100.00,North,0,9.0,14.0,87,0.00,,,0.00,,2013-04-06 19:32:00,
2013-04-06 14:42:00,38.0,36.0,-100.00,North,0,11.0,13.0,88,0.00,,,0.00,,2013-04-06 19:42:00,
2013-04-06 14:52:00,39.0,36.0,-100.00,North,0,10.0,14.0,89,0.00,,,0.00,,2013-04-06 19:52:00,
2013-04-06 15:02:00,39.0,36.0,-100.00,North,0,9.0,13.0,89,0.00,,,0.00,,2013-04-06 20:02:00,
2013-04-06 15:12:00,39.0,36.0,-100.00,North,0,9.0,14.0,89,0.00,,,0.00,,2013-04-06 20:12:00,
2013-04-06 15:22:00,39.0,36.0,-100.00,North,355,10.0,13.0,88,0.00,,,0.00,,2013-04-06 20:22:00,
2013-04-06 15:32:00,39.0,36.0,-100.00,North,0,10.0,12.0,87,0.00,,,0.00,,2013-04-06 20:32:00,
2013-04-06 15:42:00,39.0,36.0,-100.00,North,350,11.0,14.0,86,0.00,,,0.00,,2013-04-06 20:42:00,
2013-04-06 15:52:00,40.0,36.0,-100.00,NNW,340,11.0,15.0,85,0.00,,,0.00,,2013-04-06 20:52:00,
2013-04-06 16:02:00,40.0,36.0,-100.00,North,355,11.0,16.0,83,0.00,,,0.00,,2013-04-06 21:02:00,
2013-04-06 16:13:00,40.0,36.0,-100.00,North,0,9.0,15.0,83,0.00,,,0.00,,2013-04-06 21:13:00,
2013-04-06 16:22:00,40.0,36.0,-100.00,North,0,12.0,16.0,82,0.00,,,0.00,,2013-04-06 21:22:00,
2013-04-06 16:33:00,40.0,36.0,-100.00,NNW,345,11.0,16.0,82,0.00,,,0.00,,2013-04-06 21:33:00,
2013-04-06 16:43:00,40.0,34.0,-100.00,NNW,345,13.0,18.0,81,0.00,,,0.00,,2013-04-06 21:43:00,
2013-04-06 16:52:00,40.0,34.0,-100.00,NNW,340,11.0,18.0,80,0.00,,,0.00,,2013-04-06 21:52:00,
2013-04-06 17:03:00,41.0,36.0,-100.00,NNW,330,12.0,16.0,79,0.00,,,0.00,,2013-04-06 22:03:00,
2013-04-06 17:13:00,41.0,36.0,-100.00,NNW,345,12.0,16.0,78,0.00,,,0.00,,2013-04-06 22:13:00,
2013-04-06 17:23:00,41.0,34.0,-100.00,NNW,340,14.0,18.0,77,0.00,,,0.00,,2013-04-06 22:23:00,
2013-04-06 17:34:00,42.0,36.0,-100.00,North,355,14.0,20.0,76,0.00,,,0.00,,2013-04-06 22:34:00,
2013-04-06 17:43:00,42.0,34.0,-100.00,NW,325,12.0,19.0,75,0.00,,,0.00,,2013-04-06 22:43:00,
2013-04-06 17:53:00,41.0,34.0,-100.00,NNW,330,13.0,18.0,75,0.00,,,0.00,,2013-04-06 22:53:00,
2013-04-06 18:03:00,41.0,34.0,-100.00,NW,325,12.0,18.0,77,0.00,,,0.00,,2013-04-06 23:03:00,
2013-04-06 18:13:00,40.0,34.0,-100.00,NW,315,10.0,19.0,78,0.00,,,0.00,,2013-04-06 23:13:00,
2013-04-06 18:23:00,40.0,34.0,-100.00,NW,325,12.0,17.0,79,0.00,,,0.00,,2013-04-06 23:23:00,
2013-04-06 18:34:00,39.0,34.0,-100.00,NW,325,13.0,20.0,80,0.00,,,0.00,,2013-04-06 23:34:00,
2013-04-06 18:42:00,39.0,34.0,-100.00,NW,325,12.0,17.0,81,0.00,,,0.00,,2013-04-06 23:42:00,
2013-04-06 18:52:00,39.0,34.0,-100.00,NNW,335,12.0,17.0,82,0.00,,,0.00,,2013-04-06 23:52:00,
2013-04-06 19:02:00,39.0,34.0,-100.00,NNW,330,9.0,18.0,82,0.00,,,0.00,,2013-04-07 00:02:00,
2013-04-06 19:12:00,39.0,34.0,-100.00,NNW,330,10.0,16.0,83,0.00,,,0.00,,2013-04-07 00:12:00,
2013-04-06 19:22:00,38.0,34.0,-100.00,NW,320,14.0,20.0,84,0.00,,,0.00,,2013-04-07 00:22:00,
2013-04-06 19:32:00,38.0,34.0,-100.00,NW,325,12.0,18.0,86,0.00,,,0.00,,2013-04-07 00:32:00,
2013-04-06 19:42:00,37.0,34.0,-100.00,NW,325,12.0,14.0,87,0.00,,,0.00,,2013-04-07 00:42:00,
2013-04-06 19:52:00,37.0,34.0,-100.00,NNW,330,9.0,15.0,88,0.00,,,0.00,,2013-04-07 00:52:00,
2013-04-06 20:02:00,37.0,34.0,-100.00,NNW,330,11.0,16.0,88,0.00,,,0.00,,2013-04-07 01:02:00,
2013-04-06 20:12:00,37.0,34.0,-100.00,NW,320,13.0,17.0,89,0.00,,,0.00,,2013-04-07 01:12:00,
2013-04-06 20:22:00,36.0,34.0,-100.00,NNW,340,11.0,16.0,90,0.00,,,0.00,,2013-04-07 01:22:00,
2013-04-06 20:32:00,36.0,34.0,-100.00,NNW,330,9.0,15.0,90,0.00,,,0.00,,2013-04-07 01:32:00,
2013-04-06 20:42:00,36.0,34.0,-100.00,NW,325,11.0,13.0,90,0.00,,,0.00,,2013-04-07 01:42:00,
2013-04-06 20:52:00,36.0,34.0,-100.00,NNW,330,11.0,13.0,90,0.00,,,0.00,,2013-04-07 01:52:00,
2013-04-06 21:03:00,36.0,34.0,-100.00,NW,325,9.0,13.0,91,0.00,,,0.00,,2013-04-07 02:03:00,
2013-04-06 21:12:00,36.0,34.0,-100.00,NW,320,9.0,13.0,91,0.00,,,0.00,,2013-04-07 02:12:00,
2013-04-06 21:23:00,36.0,34.0,-100.00,NW,320,9.0,15.0,91,0.00,,,0.00,,2013-04-07 02:23:00,
2013-04-06 21:32:00,36.0,34.0,-100.00,NW,315,10.0,13.0,91,0.00,,,0.00,,2013-04-07 02:32:00,
2013-04-06 21:42:00,36.0,34.0,-100.00,NW,315,9.0,11.0,91,0.00,,,0.00,,2013-04-07 02:42:00,
2013-04-06 21:52:00,36.0,34.0,-100.00,NW,325,7.0,12.0,91,0.00,,,0.00,,2013-04-07 02:52:00,
2013-04-06 22:02:00,36.0,34.0,-100.00,NW,320,11.0,13.0,91,0.00,,,0.00,,2013-04-07 03:02:00,
2013-04-06 22:12:00,36.0,34.0,-100.00,NW,320,8.0,12.0,91,0.00,,,0.00,,2013-04-07 03:12:00,
2013-04-06 22:22:00,35.0,34.0,-100.00,NNW,330,9.0,12.0,91,0.00,,,0.00,,2013-04-07 03:22:00,
2013-04-06 22:33:00,35.0,34.0,-100.00,NW,325,9.0,13.0,91,0.00,,,0.00,,2013-04-07 03:33:00,
2013-04-06 22:43:00,35.0,34.0,-100.00,NW,325,9.0,14.0,91,0.00,,,0.00,,2013-04-07 03:43:00,
2013-04-06 22:53:00,35.0,34.0,-100.00,NW,325,11.0,14.0,92,0.00,,,0.00,,2013-04-07 03:53:00,
2013-04-06 23:03:00,35.0,34.0,-100.00,NW,320,9.0,14.0,92,0.00,,,0.00,,2013-04-07 04:03:00,
2013-04-06 23:13:00,35.0,34.0,-100.00,NW,325,10.0,12.0,92,0.00,,,0.00,,2013-04-07 04:13:00,
2013-04-06 23:23:00,35.0,34.0,-100.00,NW,320,9.0,15.0,92,0.00,,,0.00,,2013-04-07 04:23:00,
2013-04-06 23:32:00,35.0,34.0,-100.00,NW,325,9.0,14.0,92,0.00,,,0.00,,2013-04-07 04:32:00,
2013-04-06 23:43:00,35.0,34.0,-100.00,NW,315,11.0,14.0,92,0.00,,,0.00,,2013-04-07 04:43:00,
2013-04-06 23:52:00,35.0,34.0,-100.00,NW,325,9.0,16.0,92,0.00,,,0.00,,2013-04-07 04:52:00,